This is the latest recevied weather packets stored in our database for station/object OE5HCE. If no packets are shown the sender has not sent any weather packets the latest 10 day(s).
| Time | Temp. | Humidity | Pressure | Rain* | Wind** | Luminosity | Snow |
|---|---|---|---|---|---|---|---|
| 1787712348 | 13.89° C | 6% | 1018.2 hPa | 0.25 mm | - | 0 W/m² | - |
| 1787711456 | 13.89° C | 7% | 1018.2 hPa | 0.25 mm | - | 0 W/m² | - |
| 1787710539 | 13.89° C | 9% | 1018.3 hPa | 0 mm | - | 0 W/m² | - |
| 1787709646 | 13.89° C | 10% | 1018 hPa | 0 mm | - | 0 W/m² | - |
| 1787708736 | 13.89° C | 11% | 1017.8 hPa | 0 mm | - | 0 W/m² | - |
| 1787707837 | 13.89° C | 12% | 1017.7 hPa | 0 mm | - | 0 W/m² | - |
| 1787706932 | 14.44° C | 12% | 1017.7 hPa | 0 mm | - | 0 W/m² | - |
| 1787706030 | 14.44° C | 12% | 1017.6 hPa | 0 mm | - | 0 W/m² | - |
| 1787705129 | 14.44° C | 12% | 1017.5 hPa | 0 mm | - | 0 W/m² | - |
| 1787704226 | 15° C | 10% | 1017.7 hPa | 0 mm | - | 0 W/m² | - |
| 1787703325 | 15° C | 10% | 1017.6 hPa | 0 mm | - | 0 W/m² | - |
| 1787702425 | 15° C | 12% | 1017.6 hPa | 0 mm | - | 0 W/m² | - |
| 1787701523 | 15° C | 15% | 1017.7 hPa | 0 mm | - | 0 W/m² | - |
| 1787700625 | 15° C | 15% | 1017.7 hPa | 0 mm | - | 0 W/m² | - |
| 1787699721 | 15° C | 13% | 1017.7 hPa | 0 mm | - | 0 W/m² | - |
| 1787698819 | 15° C | 16% | 1017.7 hPa | 0 mm | - | 0 W/m² | - |
| 1787697977 | 15° C | 18% | 1017.6 hPa | 0 mm | - | 0 W/m² | - |
| 1787697016 | 15° C | 21% | 1017.7 hPa | 0 mm | - | 0 W/m² | - |
| 1787696123 | 15.56° C | 22% | 1017.7 hPa | 0 mm | - | 0 W/m² | - |
| 1787695212 | 15° C | 26% | 1017.7 hPa | 0 mm | - | 0 W/m² | - |
| 1787694312 | 15° C | 29% | 1017.6 hPa | 0 mm | - | 0 W/m² | - |
| 1787693409 | 15.56° C | 31% | 1017.6 hPa | 0 mm | - | 0 W/m² | - |
| 1787692508 | 15.56° C | 31% | 1017.5 hPa | 0 mm | - | 0 W/m² | - |
| 1787691607 | 15.56° C | 33% | 1017.5 hPa | 0 mm | - | 0 W/m² | - |
| 1787690706 | 16.11° C | 34% | 1017.5 hPa | 0 mm | - | 0 W/m² | - |
* Rain latest hour (hover to see other rain measurements)
** Current wind speed in m/s (hover to see current wind gust speed)